CW3518 Weather Reports


Display with metric or nautical units.
time (UTC)temp
F
wind
direction
speed
MPH
gust
MPH
rain 1hr
in
rain 24hr
in
rain mn
in
humidity
%
barometer
mb
20260902224007 97 83 13.0 20.0 0.00 0.00 0.00 39 1011.9
20260902223507 96 103 12.0 20.0 0.00 0.00 0.00 39 1012.0
20260902223007 96 68 10.0 18.0 0.00 0.00 0.00 39 1012.0
20260902222507 96 67 11.0 23.0 0.00 0.00 0.00 39 1012.1
20260902222007 96 99 15.0 23.0 0.00 0.00 0.00 39 1012.0
20260902221507 96 55 20.0 20.0 0.00 0.00 0.00 38 1012.0
20260902221007 98 84 13.0 13.0 0.00 0.00 0.00 37 1012.2
20260902220506 97 108 6.0 15.0 0.00 0.00 0.00 38 1012.3
20260902220006 96 93 2.0 18.0 0.00 0.00 0.00 38 1012.3
20260902215506 96 76 9.0 18.0 0.00 0.00 0.00 38 1012.4
20260902215006 96 96 7.0 16.0 0.00 0.00 0.00 38 1012.4
20260902214006 96 66 13.0 20.0 0.00 0.00 0.00 37 1012.5
20260902213006 96 82 12.0 17.0 0.00 0.00 0.00 38 1012.5
20260902212506 96 88 13.0 17.0 0.00 0.00 0.00 39 1012.5
20260902212006 95 92 15.0 21.0 0.00 0.00 0.00 39 1012.6
20260902211506 95 71 11.0 21.0 0.00 0.00 0.00 40 1012.7
20260902211006 96 31 13.0 17.0 0.00 0.00 0.00 39 1012.7
20260902210506 96 95 13.0 17.0 0.00 0.00 0.00 39 1012.7
20260902205006 96 45 15.0 15.0 0.00 0.00 0.00 39 1013.0
20260902204506 95 46 5.0 15.0 0.00 0.00 0.00 39 1013.1
20260902204006 95 62 12.0 15.0 0.00 0.00 0.00 40 1013.1
20260902203506 96 91 6.0 14.0 0.00 0.00 0.00 39 1013.2
20260902203006 95 48 7.0 18.0 0.00 0.00 0.00 39 1013.2
20260902202505 96 84 14.0 18.0 0.00 0.00 0.00 38 1013.2
20260902202006 95 40 9.0 17.0 0.00 0.00 0.00 40 1013.4
20260902201505 95 37 14.0 17.0 0.00 0.00 0.00 41 1013.4
20260902201005 95 47 13.0 17.0 0.00 0.00 0.00 41 1013.6
20260902200505 95 41 12.0 12.0 0.00 0.00 0.00 40 1013.6
20260902200005 96 71 10.0 11.0 0.00 0.00 0.00 39 1013.7
20260902195505 95 147 3.0 17.0 0.00 0.00 0.00 39 1013.7
20260902195005 95 51 11.0 18.0 0.00 0.00 0.00 40 1013.8
20260902194505 95 64 11.0 18.0 0.00 0.00 0.00 40 1013.9
20260902194035 95 105 9.0 15.0 0.00 0.00 0.00 39 1014.0
20260902193505 96 103 13.0 19.0 0.00 0.00 0.00 39 1013.9
20260902193005 94 114 3.0 19.0 0.00 0.00 0.00 40 1014.1
20260902192504 95 62 16.0 18.0 0.00 0.00 0.00 39 1014.2
20260902192004 94 57 3.0 12.0 0.00 0.00 0.00 41 1014.3
20260902191504 95 79 9.0 18.0 0.00 0.00 0.00 40 1014.4
20260902191005 95 56 8.0 18.0 0.00 0.00 0.00 41 1014.4
20260902190004 94 57 9.0 12.0 0.00 0.00 0.00 43 1014.6
20260902185505 94 116 8.0 11.0 0.00 0.00 0.00 42 1014.7
20260902185004 94 123 3.0 15.0 0.00 0.00 0.00 43 1014.8
20260902184504 93 79 5.0 15.0 0.00 0.00 0.00 43 1014.8
20260902184004 93 70 7.0 13.0 0.00 0.00 0.00 44 1014.9
20260902183504 93 103 11.0 15.0 0.00 0.00 0.00 45 1014.9
20260902183004 94 114 10.0 15.0 0.00 0.00 0.00 44 1015.0
20260902182004 93 136 7.0 12.0 0.00 0.00 0.00 44 1015.2
20260902181504 94 52 2.0 14.0 0.00 0.00 0.00 43 1015.3
20260902181004 92 65 5.0 14.0 0.00 0.00 0.00 45 1015.4
20260902180504 93 75 4.0 14.0 0.00 0.00 0.00 43 1015.5
20260902175004 93 76 12.0 15.0 0.00 0.00 0.00 44 1015.6
20260902174503 93 94 9.0 14.0 0.00 0.00 0.00 45 1015.8
20260902174003 93 89 6.0 12.0 0.00 0.00 0.00 45 1015.8
20260902173504 92 149 9.0 15.0 0.00 0.00 0.00 45 1015.8
20260902173003 92 87 8.0 15.0 0.00 0.00 0.00 46 1016.0
20260902172004 92 217 3.0 15.0 0.00 0.00 0.00 47 1016.1
20260902171503 91 56 6.0 15.0 0.00 0.00 0.00 49 1016.2
20260902171033 91 62 12.0 15.0 0.00 0.00 0.00 48 1016.2
20260902170503 92 86 11.0 11.0 0.00 0.00 0.00 47 1016.2
20260902170003 91 15 2.0 12.0 0.00 0.00 0.00 47 1016.4
20260902165503 91 100 7.0 12.0 0.00 0.00 0.00 47 1016.4
20260902165003 91 118 8.0 14.0 0.00 0.00 0.00 47 1016.4
20260902164504 91 41 10.0 14.0 0.00 0.00 0.00 47 1016.5
20260902164003 91 138 11.0 13.0 0.00 0.00 0.00 47 1016.5
20260902163503 92 135 7.0 10.0 0.00 0.00 0.00 46 1016.6
20260902163004 90 160 4.0 11.0 0.00 0.00 0.00 47 1016.7
20260902162504 91 133 9.0 11.0 0.00 0.00 0.00 47 1016.7
20260902162004 90 133 6.0 9.0 0.00 0.00 0.00 49 1016.7
20260902161503 91 160 6.0 9.0 0.00 0.00 0.00 48 1016.7
20260902161003 90 97 5.0 9.0 0.00 0.00 0.00 49 1016.7
20260902160503 90 83 1.0 7.0 0.00 0.00 0.00 50 1016.7
20260902160004 90 112 5.0 11.0 0.00 0.00 0.00 50 1016.8
20260902155503 89 111 6.0 11.0 0.00 0.00 0.00 49 1016.9
20260902155003 90 103 10.0 10.0 0.00 0.00 0.00 51 1016.8
20260902154503 90 90 8.0 10.0 0.00 0.00 0.00 51 1016.8
20260902153503 88 89 4.0 11.0 0.00 0.00 0.00 53 1016.8
20260902153003 88 118 11.0 11.0 0.00 0.00 0.00 53 1016.8
20260902152502 88 138 3.0 11.0 0.00 0.00 0.00 54 1016.8
20260902152003 87 126 5.0 11.0 0.00 0.00 0.00 55 1016.7
20260902151502 87 153 10.0 10.0 0.00 0.00 0.00 55 1016.6
20260902151003 88 157 10.0 10.0 0.00 0.00 0.00 54 1016.6
20260902150035 86 106 7.0 14.0 0.00 0.00 0.00 56 1016.6
20260902145502 86 207 1.0 9.0 0.00 0.00 0.00 57 1016.6
20260902145002 86 164 9.0 9.0 0.00 0.00 0.00 56 1016.6
20260902144032 86 118 6.0 10.0 0.00 0.00 0.00 58 1016.7
20260902143502 86 115 8.0 10.0 0.00 0.00 0.00 60 1016.6
20260902143032 85 106 4.0 11.0 0.00 0.00 0.00 61 1016.7
20260902142502 85 124 8.0 11.0 0.00 0.00 0.00 61 1016.7
20260902142002 84 126 4.0 10.0 0.00 0.00 0.00 62 1016.7
20260902141502 84 160 8.0 10.0 0.00 0.00 0.00 63 1016.7
20260902140502 84 147 8.0 10.0 0.00 0.00 0.00 63 1016.6
20260902140002 84 132 8.0 10.0 0.00 0.00 0.00 63 1016.6
20260902135502 84 131 7.0 10.0 0.00 0.00 0.00 64 1016.7
20260902135002 83 125 5.0 10.0 0.00 0.00 0.00 65 1016.7
20260902134502 83 153 6.0 9.0 0.00 0.00 0.00 65 1016.7
20260902133502 83 129 8.0 14.0 0.00 0.00 0.00 66 1016.7
20260902133002 83 133 8.0 9.0 0.00 0.00 0.00 66 1016.7
20260902132502 82 126 6.0 9.0 0.00 0.00 0.00 67 1016.7
20260902132002 82 108 5.0 6.0 0.00 0.00 0.00 68 1016.6
20260902131502 82 118 5.0 6.0 0.00 0.00 0.00 68 1016.5
20260902131002 82 110 3.0 6.0 0.00 0.00 0.00 69 1016.4
20260902130502 81 109 4.0 4.0 0.00 0.00 0.00 70 1016.3
20260902130002 81 148 3.0 3.0 0.00 0.00 0.00 70 1016.3
20260902125502 80 149 3.0 3.0 0.00 0.00 0.00 71 1016.3
20260902125032 80 150 2.0 2.0 0.00 0.00 0.00 71 1016.3
20260902124532 79 119 1.0 2.0 0.00 0.00 0.00 72 1016.3
20260902124002 79 194 1.0 2.0 0.00 0.00 0.00 73 1016.3
20260902123532 79 301 2.0 2.0 0.00 0.00 0.00 73 1016.3
20260902122501 79 99 2.0 5.0 0.00 0.00 0.00 74 1016.2
20260902122001 79 69 3.0 4.0 0.00 0.00 0.00 74 1016.2
20260902121031 78 65 3.0 4.0 0.00 0.00 0.00 75 1016.2
20260902120001 78 104 4.0 7.0 0.00 0.00 0.00 75 1016.1
20260902115532 78 105 5.0 7.0 0.00 0.00 0.00 75 1016.1
20260902114001 78 88 4.0 6.0 0.00 0.00 0.00 75 1016.0
20260902113501 78 94 5.0 7.0 0.00 0.00 0.00 75 1016.0
20260902113001 78 109 6.0 7.0 0.00 0.00 0.00 75 1016.0
20260902112502 78 106 6.0 7.0 0.00 0.00 0.00 74 1016.0
20260902112001 78 108 6.0 7.0 0.00 0.00 0.00 74 1016.0
20260902111001 79 118 5.0 6.0 0.00 0.00 0.00 74 1016.0
20260902110501 79 117 5.0 6.0 0.00 0.00 0.00 74 1016.0
20260902105501 79 109 6.0 6.0 0.00 0.00 0.00 73 1015.8
20260902105001 79 113 5.0 6.0 0.00 0.00 0.00 73 1015.7
20260902104501 79 121 6.0 6.0 0.00 0.00 0.00 73 1015.7
20260902104031 79 119 6.0 7.0 0.00 0.00 0.00 73 1015.6
20260902103500 79 112 5.0 7.0 0.00 0.00 0.00 72 1015.6
20260902102501 80 118 6.0 6.0 0.00 0.00 0.00 71 1015.6
20260902102030 80 129 5.0 7.0 0.00 0.00 0.00 71 1015.6
20260902101530 80 129 5.0 7.0 0.00 0.00 0.00 71 1015.6
20260902101030 80 123 5.0 7.0 0.00 0.00 0.00 71 1015.6
20260902100530 80 129 6.0 7.0 0.00 0.00 0.00 71 1015.6
20260902100031 80 126 6.0 7.0 0.00 0.00 0.00 70 1015.6
20260902095500 80 125 6.0 6.0 0.00 0.00 0.00 70 1015.6
20260902095000 80 120 6.0 6.0 0.00 0.00 0.00 70 1015.7
20260902094500 80 122 5.0 6.0 0.00 0.00 0.00 70 1015.7
20260902094000 81 122 5.0 5.0 0.00 0.00 0.00 70 1015.7
20260902093500 81 114 4.0 5.0 0.00 0.00 0.00 70 1015.7
20260902093000 81 138 3.0 3.0 0.00 0.00 0.00 69 1015.8
20260902092500 81 164 3.0 3.0 0.00 0.00 0.00 69 1015.8
20260902092000 81 177 3.0 3.0 0.00 0.00 0.00 69 1015.8
20260902091500 81 194 2.0 3.0 0.00 0.00 0.00 69 1015.8
20260902090500 81 161 3.0 5.0 0.00 0.00 0.00 68 1015.8
20260902090031 81 148 4.0 5.0 0.00 0.00 0.00 68 1015.8
20260902085529 82 167 4.0 5.0 0.00 0.00 0.00 67 1015.8
20260902085030 82 167 4.0 5.0 0.00 0.00 0.00 67 1015.8
20260902084530 82 182 5.0 5.0 0.00 0.00 0.00 67 1015.8
20260902084029 82 164 3.0 6.0 0.00 0.00 0.00 66 1015.8
20260902083459 82 167 5.0 6.0 0.00 0.00 0.00 66 1015.8
20260902083030 82 158 5.0 9.0 0.00 0.00 0.00 66 1015.8
20260902082531 83 170 5.0 9.0 0.00 0.00 0.00 65 1015.8
20260902081959 83 168 5.0 8.0 0.00 0.00 0.00 65 1015.8
20260902081459 83 161 5.0 8.0 0.00 0.00 0.00 65 1015.8
20260902080959 83 170 6.0 7.0 0.00 0.00 0.00 65 1015.8
20260902080459 83 168 6.0 7.0 0.00 0.00 0.00 64 1015.7
20260902075959 83 169 7.0 7.0 0.00 0.00 0.00 64 1015.8
20260902075459 83 163 6.0 8.0 0.00 0.00 0.00 64 1015.8
20260902074959 84 165 6.0 8.0 0.00 0.00 0.00 63 1015.7
20260902074459 84 170 6.0 9.0 0.00 0.00 0.00 63 1015.7
20260902074029 84 171 5.0 10.0 0.00 0.00 0.00 62 1015.7
20260902073459 84 166 7.0 13.0 0.00 0.00 0.00 62 1015.7
20260902072959 85 158 9.0 13.0 0.00 0.00 0.00 61 1015.7
20260902072459 85 169 11.0 13.0 0.00 0.00 0.00 61 1015.7
20260902071959 85 165 10.0 14.0 0.00 0.00 0.00 61 1015.7
20260902071529 85 159 9.0 14.0 0.00 0.00 0.00 61 1015.7
20260902070958 85 159 9.0 13.0 0.00 0.00 0.00 61 1015.7
20260902070458 85 149 12.0 13.0 0.00 0.00 0.00 60 1015.7
20260902070029 85 159 10.0 13.0 0.00 0.00 0.00 61 1015.7
20260902065529 85 143 10.0 13.0 0.00 0.00 0.00 61 1015.7
20260902064029 84 156 10.0 11.0 0.00 0.00 0.00 61 1015.7
20260902063528 84 155 8.0 11.0 0.00 0.00 0.00 61 1015.6
20260902063028 84 154 6.0 9.0 0.00 0.00 0.00 61 1015.6
20260902062528 84 161 6.0 9.0 0.00 0.00 0.00 61 1015.6
20260902062029 84 155 8.0 9.0 0.00 0.00 0.00 61 1015.6
20260902061531 84 170 5.0 9.0 0.00 0.00 0.00 61 1015.5
20260902060528 84 143 8.0 9.0 0.00 0.00 0.00 59 1015.4
20260902055457 84 158 6.0 6.0 0.00 0.00 0.00 59 1015.3
20260902055028 84 140 3.0 6.0 0.00 0.00 0.00 59 1015.3
20260902054527 85 123 3.0 7.0 0.00 0.00 0.00 58 1015.3
20260902054027 85 108 5.0 7.0 0.00 0.00 0.00 58 1015.3
20260902053457 86 113 4.0 5.0 0.00 0.00 0.00 57 1015.3
20260902052527 86 76 2.0 3.0 0.00 0.00 0.00 56 1015.2
20260902051457 86 94 2.0 3.0 0.00 0.00 0.00 56 1015.1
20260902050457 86 99 2.0 3.0 0.00 0.00 0.00 55 1015.1
20260902050027 86 101 2.0 3.0 0.00 0.00 0.00 55 1015.1
20260902045457 86 110 2.0 4.0 0.00 0.00 0.00 55 1015.1
20260902044456 87 89 3.0 4.0 0.00 0.00 0.00 54 1015.1
20260902044027 87 83 3.0 5.0 0.00 0.00 0.00 54 1015.1
20260902043456 87 74 4.0 5.0 0.00 0.00 0.00 54 1015.1
20260902043026 87 77 4.0 5.0 0.00 0.00 0.00 53 1015.1
20260902042026 87 57 3.0 4.0 0.00 0.00 0.00 53 1015.1
20260902040956 87 95 3.0 5.0 0.00 0.00 0.00 53 1015.0
20260902040526 87 90 3.0 5.0 0.00 0.00 0.00 52 1015.0
20260902040026 87 107 5.0 7.0 0.00 0.00 0.00 52 1015.0
20260902035526 88 82 3.0 8.0 0.00 0.00 0.00 51 1015.0
20260902035026 88 120 7.0 8.0 0.00 0.00 0.00 50 1015.0
20260902034526 89 123 6.0 7.0 0.00 0.00 0.00 50 1015.0
20260902034026 89 126 6.0 7.0 0.00 0.00 0.00 50 1015.1
20260902033026 89 145 4.0 4.0 0.00 0.00 0.00 50 1015.0
20260902032525 89 167 4.0 4.0 0.00 0.00 0.00 50 1015.0
20260902031956 89 171 3.0 4.0 0.00 0.00 0.00 50 1015.0
20260902031455 89 179 3.0 4.0 0.00 0.00 0.00 49 1014.9
20260902030955 89 189 3.0 4.0 0.00 0.00 0.00 49 1014.9
20260902030456 88 197 3.0 3.0 0.00 0.00 0.00 49 1014.8
20260902030025 89 199 3.0 4.0 0.00 0.00 0.00 49 1014.8
20260902025526 89 168 3.0 4.0 0.00 0.00 0.00 49 1014.7
20260902025025 89 170 3.0 5.0 0.00 0.00 0.00 49 1014.6
20260902024526 89 131 4.0 5.0 0.00 0.00 0.00 49 1014.5
20260902024028 89 128 5.0 5.0 0.00 0.00 0.00 49 1014.4
20260902023525 89 147 5.0 5.0 0.00 0.00 0.00 49 1014.4
20260902022955 88 156 5.0 5.0 0.00 0.00 0.00 49 1014.3
20260902022525 88 174 3.0 6.0 0.00 0.00 0.00 50 1014.2
20260902022025 88 141 5.0 6.0 0.00 0.00 0.00 49 1014.1
20260902021525 89 131 5.0 6.0 0.00 0.00 0.00 49 1014.1
20260902021025 89 127 6.0 7.0 0.00 0.00 0.00 48 1014.0
20260902020455 89 132 5.0 7.0 0.00 0.00 0.00 48 1013.9
20260902020025 89 140 5.0 7.0 0.00 0.00 0.00 48 1013.7
20260902015456 89 126 6.0 8.0 0.00 0.00 0.00 47 1013.6
20260902015026 89 128 6.0 9.0 0.00 0.00 0.00 47 1013.5
20260902013955 91 131 8.0 9.0 0.00 0.00 0.00 45 1013.4
20260902012954 91 135 8.0 10.0 0.00 0.00 0.00 44 1013.2
20260902012524 91 137 8.0 8.0 0.00 0.00 0.00 43 1013.3
20260902012024 92 131 7.0 8.0 0.00 0.00 0.00 42 1013.3
20260902011524 92 133 5.0 5.0 0.00 0.00 0.00 42 1013.2
20260902011024 92 122 5.0 6.0 0.00 0.00 0.00 42 1013.2
20260902010524 93 124 4.0 6.0 0.00 0.00 0.00 41 1013.2
20260902010024 93 122 5.0 6.0 0.00 0.00 0.00 41 1013.2
20260902005524 93 129 4.0 7.0 0.00 0.00 0.00 40 1013.2
20260902005024 94 137 5.0 9.0 0.00 0.00 0.00 40 1013.2
20260902004524 94 139 6.0 9.0 0.00 0.00 0.00 40 1013.2
20260902004024 94 124 6.0 9.0 0.00 0.00 0.00 39 1013.2
20260902003524 95 135 6.0 10.0 0.00 0.00 0.00 39 1013.2
20260902003024 95 145 7.0 10.0 0.00 0.00 0.00 39 1013.3
20260902002524 95 126 8.0 12.0 0.00 0.00 0.00 38 1013.3
20260902001954 96 144 7.0 12.0 0.00 0.00 0.00 37 1013.4
20260902001525 96 155 9.0 11.0 0.00 0.00 0.00 36 1013.4
20260902001024 96 135 9.0 13.0 0.00 0.00 0.00 36 1013.4
20260902000453 96 149 9.0 13.0 0.00 0.00 0.00 36 1013.5
20260902000024 96 126 9.0 13.0 0.00 0.00 0.00 37 1013.4
20260901235524 96 131 12.0 15.0 0.00 0.00 0.00 36 1013.4
20260901234953 96 134 11.0 15.0 0.00 0.00 0.00 36 1013.5
20260901234523 97 135 13.0 15.0 0.00 0.00 0.00 35 1013.5
20260901234023 96 131 10.0 17.0 0.00 0.00 0.00 35 1013.5
20260901233023 97 120 12.0 16.0 0.00 0.00 0.00 35 1013.6
20260901232454 97 148 9.0 14.0 0.00 0.00 0.00 34 1013.7
20260901232024 97 101 9.0 15.0 0.00 0.00 0.00 35 1013.7
20260901231523 97 110 10.0 15.0 0.00 0.00 0.00 34 1013.6
20260901231023 97 108 11.0 15.0 0.00 0.00 0.00 34 1013.7
20260901230023 97 98 7.0 15.0 0.00 0.00 0.00 34 1013.7
20260901225523 97 127 9.0 15.0 0.00 0.00 0.00 34 1013.7
20260901225023 97 102 10.0 13.0 0.00 0.00 0.00 34 1013.7